TimeADT,TemperatureF,Dew PointF,Humidity,Sea Level PressureIn,VisibilityMPH,Wind Direction,Wind SpeedMPH,Gust SpeedMPH,PrecipitationIn,Events,Conditions,WindDirDegrees,DateUTC
12:00 AM,66.2,64.4,94,29.78,15.0,South,6.9,-,N/A,,Mostly Cloudy,180,2013-08-03 03:00:00
1:00 AM,66.2,62.6,88,29.80,15.0,SSW,8.1,-,N/A,,Mostly Cloudy,210,2013-08-03 04:00:00
1:49 AM,66.2,62.6,88,29.79,12.0,SSW,8.1,-,N/A,Rain,Light Rain Showers,210,2013-08-03 04:49:00
2:00 AM,66.2,64.4,94,29.78,6.0,SSW,8.1,-,N/A,Rain,Light Rain Showers,210,2013-08-03 05:00:00
3:00 AM,65,64,96,29.77,6,SSW,8.1,,,Rain,Light Rain Showers,210,2013-08-03 06:00:00
3:00 AM,64.4,64.4,100,29.77,6.0,SSW,9.2,-,N/A,Rain,Light Rain Showers,210,2013-08-03 06:00:00
4:00 AM,64.4,64.4,100,29.76,15.0,SW,8.1,-,N/A,Rain,Light Rain Showers,220,2013-08-03 07:00:00
4:45 AM,64.4,62.6,94,29.76,10.0,WSW,11.5,-,N/A,,Overcast,240,2013-08-03 07:45:00
5:00 AM,64.4,62.6,94,29.76,10.0,SW,8.1,-,N/A,,Overcast,230,2013-08-03 08:00:00
6:00 AM,64.4,62.6,94,29.77,12.0,WSW,10.4,-,N/A,,Mostly Cloudy,240,2013-08-03 09:00:00
6:16 AM,64.4,62.6,94,29.77,15.0,SW,6.9,-,N/A,,Mostly Cloudy,230,2013-08-03 09:16:00
6:45 AM,64.4,62.6,94,29.78,15.0,WSW,8.1,-,N/A,,Mostly Cloudy,250,2013-08-03 09:45:00
7:00 AM,64.4,62.6,94,29.78,15.0,WSW,6.9,-,N/A,,Mostly Cloudy,250,2013-08-03 10:00:00
7:21 AM,64.4,62.6,94,29.78,15.0,SW,8.1,-,N/A,,Mostly Cloudy,230,2013-08-03 10:21:00
7:47 AM,66.2,62.6,88,29.78,15.0,WSW,8.1,-,N/A,,Mostly Cloudy,240,2013-08-03 10:47:00
8:00 AM,66.2,62.6,88,29.79,15.0,WSW,6.9,-,N/A,,Mostly Cloudy,240,2013-08-03 11:00:00
8:37 AM,66.2,60.8,83,29.78,15.0,West,11.5,-,N/A,,Mostly Cloudy,260,2013-08-03 11:37:00
9:00 AM,67,61,77,29.78,15,WSW,10.4,,,,Partly Cloudy,250,2013-08-03 12:00:00
9:00 AM,66.2,60.8,83,29.78,15.0,WSW,9.2,-,N/A,,Mostly Cloudy,250,2013-08-03 12:00:00
9:22 AM,68.0,60.8,78,29.78,15.0,SW,11.5,-,N/A,,Mostly Cloudy,220,2013-08-03 12:22:00
10:00 AM,68.0,62.6,83,29.79,15.0,SW,9.2,-,N/A,,Mostly Cloudy,220,2013-08-03 13:00:00
10:15 AM,68.0,60.8,78,29.79,15.0,SW,10.4,-,N/A,,Mostly Cloudy,220,2013-08-03 13:15:00
11:00 AM,69.8,62.6,78,29.78,15.0,SSW,12.7,-,N/A,,Mostly Cloudy,210,2013-08-03 14:00:00
12:00 PM,71.6,62.6,73,29.77,15.0,South,12.7,19.6,N/A,,Partly Cloudy,190,2013-08-03 15:00:00
1:00 PM,75.2,62.6,65,29.75,15.0,SW,11.5,-,N/A,,Scattered Clouds,230,2013-08-03 16:00:00
2:00 PM,75.2,62.6,65,29.74,15.0,SSW,15.0,21.9,N/A,,Mostly Cloudy,210,2013-08-03 17:00:00
3:00 PM,75,62,55,29.73,15,SSW,13.8,,,,Scattered Clouds,200,2013-08-03 18:00:00
3:00 PM,75.2,62.6,65,29.72,15.0,SSW,16.1,-,N/A,,Mostly Cloudy,210,2013-08-03 18:00:00
4:00 PM,77.0,64.4,65,29.70,15.0,South,10.4,-,N/A,,Mostly Cloudy,170,2013-08-03 19:00:00
5:00 PM,75.2,60.8,61,29.68,15.0,South,10.4,-,N/A,Thunderstorm,Thunderstorm,190,2013-08-03 20:00:00
5:19 PM,73.4,60.8,65,29.69,10.0,South,10.4,-,N/A,Rain-Thunderstorm,Thunderstorms and Rain,180,2013-08-03 20:19:00
5:29 PM,68.0,62.6,83,29.71,2.0,SSW,23.0,33.4,N/A,Rain-Thunderstorm,Heavy Thunderstorms and Rain,200,2013-08-03 20:29:00
5:38 PM,64.4,60.8,88,29.70,15.0,South,17.3,34.5,N/A,Rain-Thunderstorm,Light Thunderstorms and Rain,180,2013-08-03 20:38:00
6:00 PM,66.2,62.6,88,29.70,15.0,West,6.9,-,N/A,,Mostly Cloudy,270,2013-08-03 21:00:00
7:00 PM,68.0,64.4,88,29.68,15.0,South,10.4,-,N/A,,Mostly Cloudy,180,2013-08-03 22:00:00
8:00 PM,69.8,64.4,83,29.69,15.0,SSW,9.2,-,N/A,,Mostly Cloudy,210,2013-08-03 23:00:00
9:00 PM,65,61,84,29.69,15,NNW,4.6,,,,Partly Cloudy,330,2013-08-04 00:00:00
9:00 PM,64.4,60.8,88,29.68,15.0,NW,4.6,-,N/A,,Mostly Cloudy,320,2013-08-04 00:00:00
10:00 PM,60.8,60.8,100,29.70,15.0,NNW,2.3,-,N/A,,Scattered Clouds,340,2013-08-04 01:00:00
11:00 PM,62.6,59.0,88,29.70,15.0,South,4.6,-,N/A,Fog,Shallow Fog,190,2013-08-04 02:00:00